Time,TemperatureF,DewpointF,PressureIn,WindDirection,WindDirectionDegrees,WindSpeedMPH,WindSpeedGustMPH,Humidity,HourlyPrecipIn,Conditions,Clouds,dailyrainin,SolarRadiationWatts/m^2,SoftwareType,DateUTC
2013-11-11 07:05:00,0.0,0.0,30.03,SW,225,0.0,0.0,0,0.00,,---,0.00,0.00,VWS V14.01,2013-11-11 13:05:00,
2013-11-11 07:07:00,0.0,0.0,30.03,WSW,248,0.0,0.0,0,0.00,,---,0.00,0.00,VWS V14.01,2013-11-11 13:07:00,
2013-11-11 07:08:00,0.0,0.0,30.03,WSW,248,0.0,0.0,0,0.00,,---,0.00,0.00,VWS V14.01,2013-11-11 13:08:00,
2013-11-11 07:13:00,48.2,28.9,30.03,WSW,248,0.0,0.0,47,0.00,,---,0.00,0.00,VWS V14.01,2013-11-11 13:13:00,
2013-11-11 07:18:00,48.2,29.5,30.03,SW,225,0.0,0.0,48,0.00,,---,0.00,0.00,VWS V14.01,2013-11-11 13:18:00,
2013-11-11 07:23:00,48.4,29.6,30.03,SSW,202,0.0,0.0,48,0.00,,---,0.00,0.00,VWS V14.01,2013-11-11 13:23:00,
2013-11-11 07:28:00,48.4,29.6,30.03,WSW,248,0.0,0.0,48,0.00,,---,0.00,0.00,VWS V14.01,2013-11-11 13:28:00,
2013-11-11 07:33:00,48.7,30.5,30.03,WSW,248,0.0,0.0,49,0.00,,---,0.00,0.00,VWS V14.01,2013-11-11 13:33:00,
2013-11-11 07:38:00,48.9,31.1,30.03,WSW,248,0.0,0.0,50,0.00,,---,0.00,0.00,VWS V14.01,2013-11-11 13:38:00,
2013-11-11 07:43:00,48.9,31.1,30.03,West,270,0.0,0.0,50,0.00,,---,0.00,0.00,VWS V14.01,2013-11-11 13:43:00,
2013-11-11 07:48:00,49.6,32.3,30.03,WSW,248,2.7,2.7,51,0.00,,---,0.00,0.00,VWS V14.01,2013-11-11 13:48:00,
2013-11-11 07:53:00,50.2,32.8,30.03,WSW,248,2.9,2.9,51,0.00,,---,0.00,0.00,VWS V14.01,2013-11-11 13:53:00,
2013-11-11 07:58:00,50.2,32.8,30.03,West,270,3.6,3.6,51,0.00,,---,0.00,0.00,VWS V14.01,2013-11-11 13:58:00,
2013-11-11 08:03:00,50.2,32.8,30.03,WSW,248,3.1,3.1,51,0.00,,---,0.00,0.00,VWS V14.01,2013-11-11 14:03:00,
2013-11-11 08:08:00,50.5,32.6,30.03,SW,225,3.1,3.4,50,0.00,,---,0.00,0.00,VWS V14.01,2013-11-11 14:08:00,
2013-11-11 08:13:00,50.7,33.3,30.06,SW,225,3.6,3.6,51,0.00,,---,0.00,0.00,VWS V14.01,2013-11-11 14:13:00,
2013-11-11 08:18:00,51.4,34.4,30.06,SW,225,0.0,0.0,52,0.00,,---,0.00,0.00,VWS V14.01,2013-11-11 14:18:00,
2013-11-11 08:23:00,51.4,34.4,30.06,WSW,248,0.0,0.0,52,0.00,,---,0.00,0.00,VWS V14.01,2013-11-11 14:23:00,
2013-11-11 08:28:00,51.4,34.4,30.06,WSW,248,0.0,0.0,52,0.00,,---,0.00,0.00,VWS V14.01,2013-11-11 14:28:00,
2013-11-11 08:34:00,51.4,34.4,30.06,SW,225,3.6,3.6,52,0.00,,---,0.00,0.00,VWS V14.01,2013-11-11 14:34:00,
2013-11-11 08:39:00,53.1,35.9,30.09,WSW,248,5.4,5.4,52,0.00,,---,0.00,0.00,VWS V14.01,2013-11-11 14:39:00,
2013-11-11 08:44:00,53.8,37.1,30.09,WSW,248,6.0,6.0,53,0.00,,---,0.00,0.00,VWS V14.01,2013-11-11 14:44:00,
2013-11-11 08:49:00,53.8,37.1,30.09,West,270,7.8,7.8,53,0.00,,---,0.00,0.00,VWS V14.01,2013-11-11 14:49:00,
2013-11-11 08:54:00,53.8,37.1,30.06,WNW,292,8.1,8.1,53,0.00,,---,0.00,0.00,VWS V14.01,2013-11-11 14:54:00,
2013-11-11 08:59:00,54.3,37.6,30.06,West,270,6.5,9.8,53,0.00,,---,0.00,0.00,VWS V14.01,2013-11-11 14:59:00,
2013-11-11 09:05:00,54.5,39.1,30.06,WNW,292,9.8,9.8,56,0.00,,---,0.00,0.00,VWS V14.01,2013-11-11 15:05:00,
2013-11-11 09:10:00,54.1,38.8,30.06,WNW,292,6.5,6.5,56,0.00,,---,0.00,0.00,VWS V14.01,2013-11-11 15:10:00,
2013-11-11 09:15:00,54.1,38.8,30.09,NNW,338,5.4,6.5,56,0.00,,---,0.00,0.00,VWS V14.01,2013-11-11 15:15:00,
2013-11-11 09:20:00,54.1,38.8,30.09,WNW,292,4.9,8.5,56,0.00,,---,0.00,0.00,VWS V14.01,2013-11-11 15:20:00,
2013-11-11 09:25:00,54.1,39.3,30.09,NNW,338,5.6,8.5,57,0.00,,---,0.00,0.00,VWS V14.01,2013-11-11 15:25:00,
2013-11-11 09:30:00,54.0,40.0,30.09,NNW,338,7.6,10.3,59,0.00,,---,0.00,0.00,VWS V14.01,2013-11-11 15:30:00,
2013-11-11 09:35:00,53.8,40.2,30.09,WNW,292,15.2,15.2,60,0.00,,---,0.00,0.00,VWS V14.01,2013-11-11 15:35:00,
2013-11-11 09:40:00,53.6,40.9,30.09,WNW,292,15.2,15.2,62,0.00,,---,0.00,0.00,VWS V14.01,2013-11-11 15:40:00,
2013-11-11 09:45:00,53.6,40.9,30.09,WNW,292,15.2,15.2,62,0.00,,---,0.00,0.00,VWS V14.01,2013-11-11 15:45:00,
2013-11-11 09:50:00,53.2,40.2,30.09,NNW,338,8.1,8.1,61,0.00,,---,0.00,0.00,VWS V14.01,2013-11-11 15:50:00,
2013-11-11 09:55:00,52.9,39.4,30.09,NW,315,9.6,10.7,60,0.00,,---,0.00,0.00,VWS V14.01,2013-11-11 15:55:00,
2013-11-11 10:00:00,52.7,39.2,30.09,NNW,338,5.8,8.7,60,0.00,,---,0.00,0.00,VWS V14.01,2013-11-11 16:00:00,
2013-11-11 10:05:00,52.5,39.5,30.09,NNW,338,6.3,6.3,61,0.00,,---,0.00,0.00,VWS V14.01,2013-11-11 16:05:00,
2013-11-11 10:10:00,52.2,40.0,30.09,WNW,292,8.7,8.7,63,0.00,,---,0.00,0.00,VWS V14.01,2013-11-11 16:10:00,
2013-11-11 10:15:00,52.2,40.0,30.09,NW,315,6.7,6.7,63,0.00,,---,0.00,0.00,VWS V14.01,2013-11-11 16:15:00,
2013-11-11 10:20:00,52.0,39.8,30.09,NNW,338,9.0,9.0,63,0.00,,---,0.00,0.00,VWS V14.01,2013-11-11 16:20:00,
2013-11-11 10:25:00,51.6,39.5,30.12,NNW,338,7.8,7.8,63,0.00,,---,0.00,0.00,VWS V14.01,2013-11-11 16:25:00,
2013-11-11 10:30:00,51.6,39.5,30.12,North,0,6.5,6.5,63,0.00,,---,0.00,0.00,VWS V14.01,2013-11-11 16:30:00,
2013-11-11 10:35:00,51.6,39.5,30.12,NNE,22,6.0,6.0,63,0.00,,---,0.00,0.00,VWS V14.01,2013-11-11 16:35:00,
2013-11-11 10:40:00,51.4,39.7,30.12,NNW,338,4.9,4.9,64,0.00,,---,0.00,0.00,VWS V14.01,2013-11-11 16:40:00,
2013-11-11 10:45:00,51.4,39.7,30.12,NNE,22,4.0,4.0,64,0.00,,---,0.00,0.00,VWS V14.01,2013-11-11 16:45:00,
2013-11-11 10:51:00,51.3,39.5,30.12,NNW,338,8.1,8.1,64,0.00,,---,0.00,0.00,VWS V14.01,2013-11-11 16:51:00,
2013-11-11 10:56:00,51.3,39.5,30.12,NW,315,4.9,4.9,64,0.00,,---,0.00,0.00,VWS V14.01,2013-11-11 16:56:00,
2013-11-11 11:01:00,51.1,38.9,30.12,NNW,338,5.4,5.4,63,0.00,,---,0.00,0.00,VWS V14.01,2013-11-11 17:01:00,
2013-11-11 11:06:00,50.9,38.8,30.12,NNE,22,5.6,7.2,63,0.00,,---,0.00,0.00,VWS V14.01,2013-11-11 17:06:00,
2013-11-11 11:11:00,50.5,38.4,30.12,North,0,6.3,6.3,63,0.00,,---,0.00,0.00,VWS V14.01,2013-11-11 17:11:00,
2013-11-11 11:16:00,49.6,35.9,30.12,NNE,22,9.6,14.5,59,0.00,,---,0.00,0.00,VWS V14.01,2013-11-11 17:16:00,
2013-11-11 11:21:00,49.1,35.0,30.12,NNE,22,9.8,9.8,58,0.00,,---,0.00,0.00,VWS V14.01,2013-11-11 17:21:00,
2013-11-11 11:26:00,47.5,31.2,30.12,North,0,9.8,9.8,53,0.00,,---,0.00,0.00,VWS V14.01,2013-11-11 17:26:00,
2013-11-11 11:31:00,47.5,0.0,30.12,NE,45,12.3,12.3,53,0.00,,---,0.00,0.00,VWS V14.01,2013-11-11 17:31:00,
2013-11-11 11:36:00,45.7,29.5,30.12,NNW,338,5.8,8.5,53,0.00,,---,0.00,0.00,VWS V14.01,2013-11-11 17:36:00,
2013-11-11 11:41:00,45.1,29.0,30.15,North,0,7.4,10.1,53,0.00,,---,0.00,0.00,VWS V14.01,2013-11-11 17:41:00,
2013-11-11 11:46:00,44.8,28.7,30.15,NE,45,10.7,13.2,53,0.00,,---,0.00,0.00,VWS V14.01,2013-11-11 17:46:00,
2013-11-11 11:51:00,44.2,27.3,30.15,North,0,9.8,11.0,51,0.00,,---,0.00,0.00,VWS V14.01,2013-11-11 17:51:00,
2013-11-11 11:56:00,43.9,27.4,30.15,NNE,22,5.6,12.1,52,0.00,,---,0.00,0.00,VWS V14.01,2013-11-11 17:56:00,
2013-11-11 12:01:00,43.9,27.4,30.15,NNW,338,8.1,9.8,52,0.00,,---,0.00,0.00,VWS V14.01,2013-11-11 18:01:00,
2013-11-11 12:06:00,43.0,26.6,30.15,NNE,22,5.8,8.7,52,0.00,,---,0.00,0.00,VWS V14.01,2013-11-11 18:06:00,
2013-11-11 12:12:00,42.4,26.5,30.15,NNW,338,9.8,9.8,53,0.00,,---,0.00,0.00,VWS V14.01,2013-11-11 18:12:00,
2013-11-11 12:17:00,41.7,26.8,30.15,ENE,68,13.9,13.9,55,0.00,,---,0.00,0.00,VWS V14.01,2013-11-11 18:17:00,
2013-11-11 12:22:00,41.7,26.8,30.18,ESE,112,3.1,6.0,55,0.00,,---,0.00,0.00,VWS V14.01,2013-11-11 18:22:00,
2013-11-11 12:27:00,41.7,27.2,30.18,NNW,338,7.2,7.2,56,0.00,,---,0.00,0.00,VWS V14.01,2013-11-11 18:27:00,
2013-11-11 12:32:00,41.9,26.9,30.18,NNE,22,8.1,8.1,55,0.00,,---,0.00,0.00,VWS V14.01,2013-11-11 18:32:00,
2013-11-11 12:37:00,41.9,26.9,30.18,NNE,22,6.3,7.6,55,0.00,,---,0.00,0.00,VWS V14.01,2013-11-11 18:37:00,
2013-11-11 12:42:00,42.1,26.2,30.18,NNE,22,3.6,8.1,53,0.00,,---,0.00,0.00,VWS V14.01,2013-11-11 18:42:00,
2013-11-11 12:47:00,42.1,26.2,30.15,NNW,338,8.5,8.5,53,0.00,,---,0.00,0.00,VWS V14.01,2013-11-11 18:47:00,
2013-11-11 12:52:00,42.1,26.2,30.15,NNE,22,4.0,4.5,53,0.00,,---,0.00,0.00,VWS V14.01,2013-11-11 18:52:00,
2013-11-11 12:57:00,42.1,25.3,30.15,NW,315,9.4,9.4,51,0.00,,---,0.00,0.00,VWS V14.01,2013-11-11 18:57:00,
2013-11-11 13:02:00,42.1,25.7,30.15,NNW,338,10.5,10.7,52,0.00,,---,0.00,0.00,VWS V14.01,2013-11-11 19:02:00,
2013-11-11 13:10:00,42.3,25.0,30.15,NNE,22,12.5,12.5,50,0.00,,---,0.00,0.00,VWS V14.01,2013-11-11 19:10:00,
2013-11-11 13:15:00,42.3,25.0,30.15,NNE,22,3.4,11.0,50,0.00,,---,0.00,0.00,VWS V14.01,2013-11-11 19:15:00,
2013-11-11 13:20:00,42.3,24.5,30.15,North,0,14.8,14.8,49,0.00,,---,0.00,0.00,VWS V14.01,2013-11-11 19:20:00,
2013-11-11 13:25:00,42.3,24.5,30.15,North,0,10.7,10.7,49,0.00,,---,87.04,0.00,VWS V14.01,2013-11-11 19:25:00,
2013-11-11 13:30:00,42.1,24.3,30.15,NNE,22,7.6,11.0,49,0.00,,---,87.04,0.00,VWS V14.01,2013-11-11 19:30:00,
2013-11-11 13:35:00,42.1,24.3,30.15,NNE,22,10.1,14.8,49,0.00,,---,0.00,0.00,VWS V14.01,2013-11-11 19:35:00,
2013-11-11 13:40:00,42.1,24.3,30.15,North,0,4.7,4.7,49,0.00,,---,28.16,0.00,VWS V14.01,2013-11-11 19:40:00,
2013-11-11 13:45:00,42.1,24.3,30.15,NNW,338,10.5,10.5,49,0.00,,---,28.16,0.00,VWS V14.01,2013-11-11 19:45:00,
2013-11-11 13:50:00,42.1,24.3,30.15,NNE,22,7.6,7.6,49,0.00,,---,99.99,0.00,VWS V14.01,2013-11-11 19:50:00,
2013-11-11 13:55:00,42.1,24.3,30.15,NNW,338,7.8,7.8,49,0.00,,---,99.99,0.00,VWS V14.01,2013-11-11 19:55:00,
2013-11-11 14:00:00,42.1,23.8,30.15,NNE,22,14.8,14.8,48,0.00,,---,99.99,0.00,VWS V14.01,2013-11-11 20:00:00,
2013-11-11 14:05:00,42.1,24.3,30.15,NNE,22,6.5,7.4,49,0.00,,---,99.99,0.00,VWS V14.01,2013-11-11 20:05:00,
2013-11-11 14:10:00,42.1,24.3,30.18,NNE,22,8.1,11.0,49,0.00,,---,30.72,0.00,VWS V14.01,2013-11-11 20:10:00,
2013-11-11 14:15:00,42.1,24.3,30.18,NE,45,8.1,8.1,49,0.00,,---,99.99,0.00,VWS V14.01,2013-11-11 20:15:00,
2013-11-11 14:20:00,42.1,23.8,30.21,NNE,22,8.7,8.7,48,87.04,,---,99.99,0.00,VWS V14.01,2013-11-11 20:20:00,
2013-11-11 14:25:00,42.1,23.8,30.21,NNE,22,17.5,17.5,48,0.00,,---,99.99,0.00,VWS V14.01,2013-11-11 20:25:00,
2013-11-11 14:30:00,41.2,23.0,30.21,NNE,22,17.5,17.5,48,0.00,,---,99.99,0.00,VWS V14.01,2013-11-11 20:30:00,
2013-11-11 14:35:00,40.5,22.3,30.21,NNW,338,11.0,11.0,48,99.99,,---,99.99,0.00,VWS V14.01,2013-11-11 20:35:00,
2013-11-11 14:40:00,40.5,22.3,30.21,NE,45,15.2,15.2,48,2.56,,---,99.99,0.00,VWS V14.01,2013-11-11 20:40:00,
2013-11-11 14:45:00,39.7,21.7,30.21,NNE,22,6.5,6.5,48,2.56,,---,99.99,0.00,VWS V14.01,2013-11-11 20:45:00,
2013-11-11 14:50:00,39.2,21.7,30.21,NNW,338,17.0,17.0,49,0.00,,---,99.99,0.00,VWS V14.01,2013-11-11 20:50:00,
2013-11-11 14:55:00,38.7,21.2,30.21,NNE,22,17.0,17.0,49,0.00,,---,99.99,0.00,VWS V14.01,2013-11-11 20:55:00,
2013-11-11 15:00:00,38.5,20.5,30.21,NW,315,11.2,11.2,48,99.99,,---,99.99,0.00,VWS V14.01,2013-11-11 21:00:00,
2013-11-11 15:05:00,38.1,20.2,30.21,NNE,22,10.3,12.1,48,0.00,,---,99.99,0.00,VWS V14.01,2013-11-11 21:05:00,
2013-11-11 15:10:00,37.9,20.5,30.21,NNE,22,15.2,15.2,49,89.60,,---,99.99,0.00,VWS V14.01,2013-11-11 21:10:00,
2013-11-11 15:15:00,37.8,19.9,30.21,NNE,22,8.1,17.0,48,0.00,,---,99.99,0.00,VWS V14.01,2013-11-11 21:15:00,
2013-11-11 15:20:00,37.4,19.5,30.24,NNE,22,12.3,12.3,48,0.00,,---,99.99,0.00,VWS V14.01,2013-11-11 21:20:00,
2013-11-11 15:25:00,37.2,18.9,30.24,ENE,68,9.8,12.3,47,0.00,,---,99.99,0.00,VWS V14.01,2013-11-11 21:25:00,
2013-11-11 15:30:00,37.0,18.7,30.24,North,0,12.5,12.5,47,0.00,,---,99.99,0.00,VWS V14.01,2013-11-11 21:30:00,
2013-11-11 15:35:00,36.7,17.9,30.24,NNE,22,5.8,12.1,46,0.00,,---,99.99,0.00,VWS V14.01,2013-11-11 21:35:00,
2013-11-11 15:41:00,36.7,17.9,30.27,NNE,22,8.5,8.5,46,0.00,,---,99.99,0.00,VWS V14.01,2013-11-11 21:41:00,
2013-11-11 15:46:00,36.5,17.7,30.27,NE,45,12.3,13.0,46,0.00,,---,0.00,0.00,VWS V14.01,2013-11-11 21:46:00,
2013-11-11 15:51:00,36.5,17.7,30.27,NNW,338,14.8,14.8,46,99.99,,---,99.99,0.00,VWS V14.01,2013-11-11 21:51:00,
2013-11-11 15:56:00,36.3,16.5,30.27,NNE,22,15.4,15.4,44,0.00,,---,99.99,0.00,VWS V14.01,2013-11-11 21:56:00,
2013-11-11 16:01:00,36.1,16.4,30.27,NNE,22,15.7,15.7,44,0.00,,---,99.99,0.00,VWS V14.01,2013-11-11 22:01:00,
2013-11-11 16:06:00,36.0,16.2,30.27,North,0,6.5,6.5,44,0.01,,---,99.99,0.00,VWS V14.01,2013-11-11 22:06:00,
2013-11-11 16:11:00,35.8,15.5,30.27,NNW,338,10.3,10.3,43,0.00,,---,99.99,0.00,VWS V14.01,2013-11-11 22:11:00,
2013-11-11 16:16:00,35.2,14.5,30.27,NW,315,15.2,15.2,42,0.00,,---,99.99,0.00,VWS V14.01,2013-11-11 22:16:00,
2013-11-11 16:21:00,34.9,14.7,30.27,NNE,22,6.0,12.5,43,0.00,,---,99.99,0.00,VWS V14.01,2013-11-11 22:21:00,
2013-11-11 16:26:00,34.9,14.7,30.27,NNE,22,11.0,11.0,43,0.00,,---,99.99,0.00,VWS V14.01,2013-11-11 22:26:00,
2013-11-11 16:32:00,34.3,14.2,30.27,North,0,10.7,10.7,43,0.00,,---,99.99,0.00,VWS V14.01,2013-11-11 22:32:00,
2013-11-11 16:37:00,34.0,14.4,30.27,NNE,22,13.2,17.2,44,0.00,,---,99.99,0.00,VWS V14.01,2013-11-11 22:37:00,
2013-11-11 16:42:00,33.8,14.2,30.27,NNE,22,8.7,10.3,44,99.99,,---,99.99,0.00,VWS V14.01,2013-11-11 22:42:00,
2013-11-11 16:47:00,33.4,14.4,30.27,NNW,338,9.6,9.6,45,99.99,,---,99.99,0.00,VWS V14.01,2013-11-11 22:47:00,
2013-11-11 16:52:00,33.3,14.2,30.27,NNE,22,16.1,21.9,45,61.44,,---,99.99,0.00,VWS V14.01,2013-11-11 22:52:00,
2013-11-11 16:57:00,33.1,13.6,30.30,NE,45,13.0,15.2,44,99.99,,---,99.99,0.00,VWS V14.01,2013-11-11 22:57:00,
2013-11-11 17:02:00,33.1,13.6,30.30,NNE,22,10.7,10.7,44,99.99,,---,99.99,0.00,VWS V14.01,2013-11-11 23:02:00,
2013-11-11 17:07:00,32.5,12.5,30.33,NNE,22,15.4,15.4,43,99.99,,---,99.99,0.00,VWS V14.01,2013-11-11 23:07:00,
2013-11-11 17:12:00,32.5,12.5,30.33,North,0,6.3,12.8,43,69.11,,---,99.99,0.00,VWS V14.01,2013-11-11 23:12:00,
2013-11-11 17:17:00,32.2,11.7,30.33,NNE,22,8.7,12.8,42,99.99,,---,99.99,0.00,VWS V14.01,2013-11-11 23:17:00,
2013-11-11 17:22:00,32.0,11.5,30.33,NNE,22,10.1,10.1,42,0.00,,---,99.99,0.00,VWS V14.01,2013-11-11 23:22:00,
2013-11-11 17:27:00,31.8,11.9,30.33,WNW,292,6.5,11.9,43,0.00,,---,99.99,0.00,VWS V14.01,2013-11-11 23:27:00,
2013-11-11 17:32:00,31.6,12.2,30.33,NNE,22,18.6,18.6,44,99.99,,---,99.99,0.00,VWS V14.01,2013-11-11 23:32:00,
2013-11-11 17:37:00,31.3,11.9,30.33,NNE,22,8.7,8.7,44,61.43,,---,99.99,0.00,VWS V14.01,2013-11-11 23:37:00,
2013-11-11 17:42:00,30.9,11.6,30.33,NNE,22,8.1,8.5,44,0.00,,---,99.99,0.00,VWS V14.01,2013-11-11 23:42:00,
2013-11-11 17:47:00,30.9,11.6,30.33,NNE,22,7.4,11.0,44,0.00,,---,99.99,0.00,VWS V14.01,2013-11-11 23:47:00,
2013-11-11 17:54:00,30.4,11.6,30.33,NNE,22,7.2,7.2,45,0.00,,---,99.99,0.00,VWS V14.01,2013-11-11 23:54:00,
2013-11-11 17:59:00,30.4,11.6,30.33,NNE,22,8.7,12.3,45,0.00,,---,99.99,0.00,VWS V14.01,2013-11-11 23:59:00,
2013-11-11 18:04:00,29.7,9.9,30.33,NNW,338,11.0,14.8,43,87.04,,---,99.99,0.00,VWS V14.01,2013-11-12 00:04:00,
2013-11-11 18:09:00,29.3,9.6,30.33,NNE,22,11.2,11.2,43,84.48,,---,99.99,0.00,VWS V14.01,2013-11-12 00:09:00,
2013-11-11 18:14:00,28.9,9.8,30.33,NNE,22,5.6,13.2,44,56.32,,---,99.99,0.00,VWS V14.01,2013-11-12 00:14:00,
2013-11-11 18:19:00,28.6,9.4,30.36,NE,45,9.6,10.7,44,43.52,,---,99.99,0.00,VWS V14.01,2013-11-12 00:19:00,
2013-11-11 18:24:00,28.6,9.4,30.39,NNW,338,11.0,11.0,44,0.00,,---,99.99,0.00,VWS V14.01,2013-11-12 00:24:00,
2013-11-11 18:29:00,28.2,9.1,30.39,North,0,7.8,7.8,44,99.99,,---,99.99,0.00,VWS V14.01,2013-11-12 00:29:00,
2013-11-11 18:34:00,28.0,8.4,30.39,North,0,7.8,7.8,43,53.76,,---,99.99,0.00,VWS V14.01,2013-11-12 00:34:00,
2013-11-11 18:39:00,27.9,7.8,30.39,North,0,9.6,9.6,42,56.32,,---,99.99,0.00,VWS V14.01,2013-11-12 00:39:00,
2013-11-11 18:44:00,27.9,7.8,30.39,North,0,7.8,11.0,42,0.00,,---,99.99,0.00,VWS V14.01,2013-11-12 00:44:00,
2013-11-11 18:49:00,27.7,7.6,30.39,NNE,22,12.1,13.0,42,0.00,,---,99.99,0.00,VWS V14.01,2013-11-12 00:49:00,
2013-11-11 18:54:00,27.7,7.6,30.36,NNE,22,9.6,9.6,42,0.00,,---,99.99,0.00,VWS V14.01,2013-11-12 00:54:00,
2013-11-11 18:59:00,27.5,7.9,30.36,NNE,22,10.3,10.3,43,0.00,,---,99.99,0.00,VWS V14.01,2013-11-12 00:59:00,
2013-11-11 19:04:00,27.5,7.9,30.36,North,0,11.9,11.9,43,0.00,,---,99.99,0.00,VWS V14.01,2013-11-12 01:04:00,
2013-11-11 19:09:00,27.5,7.9,30.39,NNE,22,5.8,10.5,43,0.00,,---,99.99,0.00,VWS V14.01,2013-11-12 01:09:00,
2013-11-11 19:14:00,27.3,8.3,30.39,NNE,22,9.6,9.6,44,0.00,,---,99.99,0.00,VWS V14.01,2013-11-12 01:14:00,
2013-11-11 19:19:00,27.1,8.1,30.39,NNE,22,7.4,7.6,44,0.00,,---,99.99,0.00,VWS V14.01,2013-11-12 01:19:00,
2013-11-11 19:24:00,27.0,8.5,30.39,NNE,22,8.5,10.7,45,0.00,,---,99.99,0.00,VWS V14.01,2013-11-12 01:24:00,
2013-11-11 19:29:00,27.0,8.9,30.39,North,0,11.0,11.0,46,0.00,,---,99.99,0.00,VWS V14.01,2013-11-12 01:29:00,
2013-11-11 19:34:00,27.0,8.9,30.39,NNE,22,4.9,9.0,46,0.00,,---,99.99,0.00,VWS V14.01,2013-11-12 01:34:00,
2013-11-11 19:39:00,27.0,8.9,30.41,NNE,22,6.5,6.5,46,0.00,,---,99.99,0.00,VWS V14.01,2013-11-12 01:39:00,
2013-11-11 19:45:00,26.8,8.8,30.41,NNW,338,9.6,9.6,46,0.00,,---,99.99,0.00,VWS V14.01,2013-11-12 01:45:00,
2013-11-11 19:50:00,26.8,8.8,30.41,North,0,5.6,5.6,46,0.00,,---,99.99,0.00,VWS V14.01,2013-11-12 01:50:00,
2013-11-11 19:55:00,26.8,8.8,30.41,NNW,338,7.6,7.6,46,0.00,,---,99.99,0.00,VWS V14.01,2013-11-12 01:55:00,
2013-11-11 20:00:00,27.0,8.9,30.41,NNW,338,4.0,8.5,46,0.00,,---,99.99,0.00,VWS V14.01,2013-11-12 02:00:00,
2013-11-11 20:05:00,27.0,8.9,30.41,NNW,338,6.3,6.3,46,0.00,,---,99.99,0.00,VWS V14.01,2013-11-12 02:05:00,
2013-11-11 20:10:00,26.8,8.3,30.41,North,0,8.1,8.1,45,0.00,,---,99.99,0.00,VWS V14.01,2013-11-12 02:10:00,
2013-11-11 20:15:00,26.8,7.8,30.41,North,0,7.2,13.0,44,0.00,,---,99.99,0.00,VWS V14.01,2013-11-12 02:15:00,
2013-11-11 20:20:00,26.8,7.3,30.41,NNE,22,12.5,12.5,43,0.00,,---,99.99,0.00,VWS V14.01,2013-11-12 02:20:00,
2013-11-11 20:25:00,26.8,6.8,30.44,NNW,338,13.0,13.0,42,0.00,,---,99.99,0.00,VWS V14.01,2013-11-12 02:25:00,
2013-11-11 20:30:00,26.8,6.8,30.44,NNE,22,8.5,8.5,42,0.00,,---,99.99,0.00,VWS V14.01,2013-11-12 02:30:00,
2013-11-11 21:13:00,26.1,6.1,0.00,NNE,22,4.9,4.9,42,0.00,,---,99.99,0.00,VWS V14.01,2013-11-12 03:13:00,
2013-11-11 21:18:00,26.1,6.1,30.44,NNE,22,8.1,15.7,42,0.00,,---,99.99,0.00,VWS V14.01,2013-11-12 03:18:00,